Weather History for Aspen, CO

Change the Weather History Date:

Monday, April 28, 2014

  Actual Average Record
Temperature  
Mean Temperature 31 °F 43 °F  
Max Temperature 37 °F 56 °F 72 °F (1992)
Min Temperature 25 °F 30 °F 12 °F (1984)
Degree Days  
Heating Degree Days 34 22  
Month to date heating degree days 686 712  
Since 1 July heating degree days 7812 8087  
Cooling Degree Days 0 0  
Month to date cooling degree days 0 0  
Year to date cooling degree days 0 0  
Moisture  
Dew Point 22 °F    
Average Humidity 65    
Maximum Humidity 85    
Minimum Humidity 44    
Precipitation  
Precipitation 0.01 in 0.07 in 0.85 in (1990)
Month to date precipitation 0.88 1.69  
Year to date precipitation 4.57 5.25  
Sea Level Pressure  
Sea Level Pressure 29.86 in    
Wind  
Wind Speed 9 mph (NNW)    
Max Wind Speed 36 mph    
Max Gust Speed 48 mph    
Visibility 6 miles    
Events Snow    
T = Trace of Precipitation, MM = Missing Value Source: NWS Daily Summary

Daily Weather History Graph

Daily Weather History Graph

Search for Another Location

Airport:

Trip Planner

Search our weather history database for the weather conditions in past years. The results will help you decide how hot, cold, wet, or windy it might be!

Date:

Astronomy

Apr. 28, 2014 Rise Set
Actual Time 6:12 AM MDT 7:57 PM MDT
Civil Twilight 5:44 AM MDT 8:26 PM MDT
Nautical Twilight 5:09 AM MDT 9:01 PM MDT
Astronomical Twilight 4:32 AM MDT 9:38 PM MDT
Moon 5:52 AM MDT (4/28) 7:39 PM MDT (4/28)
Length of Visible Light 14h 42m
Length of Day
13h 45m
Waning Crescent, 0% of the Moon is Illuminated
Apr 28
Waning Crescent
Apr 29
New
May 6
First Quarter
May 14
Full
May 21
Last Quarter

Hourly Weather History & Observations

Time (MDT) Temp. Windchill Dew Point Humidity Pressure Visibility Wind Dir Wind Speed Gust Speed Precip Events Conditions
12:04 AM 30.0 °F 24.1 °F 27.0 °F 88% 29.83 in 2.5 mi North 5.8 mph - 0.00 in Snow Light Snow
12:12 AM 30.0 °F 23.2 °F 27.0 °F 88% 29.83 in 3.0 mi North 6.9 mph - 0.00 in Snow Light Snow
2:53 AM 30.0 °F 24.1 °F 27.0 °F 88% 29.70 in 10.0 mi North 5.8 mph - N/A   Overcast
4:20 AM 30.0 °F 22.4 °F 26.1 °F 85% 29.82 in 2.5 mi NNW 8.1 mph - 0.00 in Snow Light Snow
4:29 AM 28.9 °F 21.1 °F 26.1 °F 89% 29.82 in 1.5 mi NNW 8.1 mph - 0.00 in Snow Light Snow
4:40 AM 28.9 °F 21.1 °F 26.1 °F 89% 29.82 in 2.5 mi NNW 8.1 mph - 0.00 in Snow Light Snow
4:48 AM 30.2 °F 21.3 °F 26.6 °F 86% 29.82 in 4.0 mi NNW 10.4 mph - 0.00 in Snow Light Snow
4:53 AM 28.9 °F 21.1 °F 26.1 °F 89% 29.72 in 2.5 mi North 8.1 mph - 0.00 in Snow Light Snow
4:57 AM 28.9 °F 21.1 °F 26.1 °F 89% 29.82 in 1.5 mi NNW 8.1 mph - 0.00 in Snow Light Snow
5:06 AM 28.9 °F 21.9 °F 26.1 °F 89% 29.83 in 2.0 mi NNW 6.9 mph - 0.00 in Snow Light Snow
5:08 AM 28.9 °F 22.8 °F 27.0 °F 92% 29.82 in 3.0 mi North 5.8 mph - 0.00 in Snow Light Snow
5:14 AM 28.9 °F 21.9 °F 27.0 °F 92% 29.82 in 6.0 mi North 6.9 mph - 0.00 in Snow Light Snow
5:29 AM 28.9 °F 21.9 °F 26.1 °F 89% 29.83 in 10.0 mi North 6.9 mph - 0.00 in   Overcast
5:38 AM 28.9 °F 21.9 °F 26.1 °F 89% 29.83 in 10.0 mi North 6.9 mph - 0.00 in   Overcast
5:53 AM 28.9 °F 23.9 °F 26.1 °F 89% 29.74 in 10.0 mi North 4.6 mph - 0.00 in   Overcast
6:22 AM 28.9 °F 21.9 °F 25.0 °F 85% 29.83 in 8.0 mi NNW 6.9 mph - 0.00 in Snow Light Snow
6:46 AM 30.0 °F 24.1 °F 25.0 °F 82% 29.84 in 10.0 mi North 5.8 mph - 0.00 in   Overcast
6:53 AM 28.9 °F 22.8 °F 25.0 °F 85% 29.75 in 7.0 mi North 5.8 mph - 0.00 in Snow Light Snow
8:53 AM 30.9 °F 22.8 °F 21.0 °F 67% 29.79 in 7.0 mi NNW 9.2 mph - N/A   Overcast
9:49 AM 30.2 °F 18.5 °F 21.2 °F 69% 29.87 in 2.0 mi NNW 17.3 mph 24.2 mph 0.00 in Snow Light Snow
9:53 AM 30.0 °F 18.7 °F 19.9 °F 66% 29.81 in 2.0 mi North 16.1 mph 24.2 mph 0.00 in Snow Light Snow
9:55 AM 28.9 °F 17.3 °F 19.9 °F 69% 29.88 in 1.2 mi NNW 16.1 mph 24.2 mph 0.00 in Snow Light Snow
10:23 AM 30.0 °F 21.1 °F 18.0 °F 61% 29.88 in 9.0 mi NNW 10.4 mph - 0.01 in   Overcast
10:53 AM 33.1 °F 24.9 °F 16.0 °F 50% 29.79 in 9.0 mi NW 10.4 mph 25.3 mph 0.01 in   Overcast
11:53 AM 34.0 °F 26.6 °F 15.1 °F 46% 29.79 in 10.0 mi NNW 9.2 mph 18.4 mph N/A   Overcast
12:53 PM 36.0 °F 27.1 °F 15.1 °F 43% 29.76 in 4.0 mi North 13.8 mph 23.0 mph N/A   Haze
1:03 PM 32.0 °F 17.6 °F 21.0 °F 64% 29.88 in 2.0 mi NNW 29.9 mph 42.6 mph 0.00 in Snow Snow
1:05 PM 30.9 °F 16.7 °F 21.9 °F 69% 29.88 in 1.0 mi NW 27.6 mph 42.6 mph 0.00 in Snow Snow
1:45 PM 30.0 °F 20.0 °F 23.0 °F 75% 29.91 in 6.0 mi North 12.7 mph 25.3 mph 0.00 in Snow Light Snow
1:53 PM 30.9 °F 21.7 °F 24.1 °F 76% 29.84 in 10.0 mi North 11.5 mph 20.7 mph 0.00 in   Mostly Cloudy
2:53 PM 32.0 °F 25.6 °F 18.0 °F 56% 29.86 in 10.0 mi Variable 6.9 mph 18.4 mph 0.00 in   Mostly Cloudy
3:23 PM 30.9 °F 16.9 °F 19.9 °F 64% 29.94 in 2.0 mi NNW 26.5 mph 48.3 mph 0.00 in Snow Snow
3:45 PM 28.0 °F 20.8 °F 21.0 °F 75% 29.96 in 8.0 mi Variable 6.9 mph - 0.00 in   Mostly Cloudy
3:53 PM 30.9 °F 19.8 °F 21.0 °F 67% 29.90 in 7.0 mi NNW 16.1 mph 24.2 mph 0.00 in   Mostly Cloudy
4:53 PM 36.0 °F 31.1 °F 15.1 °F 43% 29.86 in 10.0 mi Variable 5.8 mph - N/A   Partly Cloudy
5:53 PM 32.0 °F 21.2 °F 19.9 °F 61% 29.91 in 6.0 mi NE 16.1 mph 25.3 mph 0.00 in Snow Light Snow
6:53 PM 32.0 °F 23.0 °F 17.1 °F 54% 29.95 in 10.0 mi NNW 11.5 mph - 0.00 in   Overcast
7:53 PM 30.9 °F 21.7 °F 16.0 °F 54% 29.97 in 10.0 mi North 11.5 mph 26.5 mph N/A   Overcast
9:53 PM 28.0 °F 22.8 °F 19.0 °F 69% 30.07 in 10.0 mi North 4.6 mph - N/A   Overcast
10:53 PM 26.1 °F 21.9 °F 19.0 °F 75% 30.08 in 10.0 mi North 3.5 mph - N/A   Scattered Clouds
11:53 PM 25.0 °F 18.1 °F 19.0 °F 78% 30.08 in 10.0 mi NNW 5.8 mph - N/A   Overcast